Regional Weather Roundup
Issued by NWS

Home | Current Version | Previous Version | Text Only | Print | Product List | Glossary Off
Versions: 1 2 3 4 5 6 7 8 9 10 11 12 13 14 15 16 17 18 19 20 21 22 23 24 25 26 27 28 29 30 31 32 33 34 35 36 37 38 39 40 41 42 43 44 45 46 47 48 49 50

000
ASUS43 KLOT 232308
RWRIL

ILLINOIS REGIONAL WEATHER ROUNDUP
NATIONAL WEATHER SERVICE CHICAGO/ROMEOVILLE IL
600 PM CDT SUN APR 23 2017

NOTE: "FAIR" INDICATES FEW OR NO CLOUDS BELOW 12,000 FEET WITH NO
SIGNIFICANT WEATHER AND/OR OBSTRUCTIONS TO VISIBILITY.

* THESE STATIONS ARE NOT UNDER NWS QUALITY CONTROL. THEY ALSO MAY NOT
  REPORT WEATHER SUCH AS PRECIPITATION OR FOG.

ILZ001-002-007-009-015-016-024-240000-
NORTHWEST ILLINOIS

CITY           SKY/WX    TMP DP  RH WIND       PRES   REMARKS
MOLINE         SUNNY     71  29  21 CALM      30.01F
STERLING*      SUNNY     70  30  22 CALM      30.03S
SAVANNA*       SUNNY     70  33  25 CALM      30.02F
$$

ILZ003-004-008-010-011-017-018-240000-
NORTH CENTRAL ILLINOIS

CITY           SKY/WX    TMP DP  RH WIND       PRES   REMARKS
ROCKFORD       MOSUNNY   71  35  26 S3        30.03S
FREEPORT*      SUNNY     69  34  27 W7        30.03S
ROCHELLE*      SUNNY     69  33  26 CALM      30.03S
DE KALB*       SUNNY     70  31  23 CALM      30.04S
PERU*          SUNNY     70  27  19 CALM      30.03S
$$

ILZ005-006-012>014-019>023-240000-
NORTHEAST ILLINOIS

CITY           SKY/WX    TMP DP  RH WIND       PRES   REMARKS
CHICAGO-OHARE  MOSUNNY   68  30  24 E13       30.03S
CHICAGO-MIDWAY MOSUNNY   67  32  27 E14       30.05S
AURORA         SUNNY     72  31  22 E6        30.03S
LANSING*       SUNNY     64  35  33 NE9       30.06R
JOLIET*        SUNNY     69  34  27 SE8       30.03S
WAUKEGAN       SUNNY     48  40  73 NE12      30.05S
DUPAGE AIRPORT SUNNY     72  31  22 CALM      30.02S
KANKAKEE*      SUNNY     70  20  15 NE6       30.05S
WHEELING       SUNNY     66  32  28 SE12      30.04F
MORRIS*        SUNNY     71  25  17 CALM      30.01F
ROMEOVILLE*    SUNNY     68  40  36 E12       30.04S
NORTHERLY ISL    N/A     59  42  53 SE3         N/A
$$

LMZ740>746-240000-
SOUTHERN LAKE MICHIGAN

STATION/POSITION SKY/WX   TEMP    WIND        PRES    VSBY  WAVE
                          AIR SEA DIR/SP/G                  HT/PER
                          (F)     (DEG/KT/KT) (MB)    (MI)  (FT/S)
HARRISON CRIB              56     140/ 12/ 12   N/A
BURNHAM HARBOR             58     180/  2/  7   N/A
CALUMET HARBOR             60      90/  6/  9 1017.3S
BURNS HARBOR               59      60/  5/  5 1018.3S
MICHIGAN CITY              53      20/  5/  5   N/A
ST. JOSEPH                 53 54   20/  4/  4 1018.5          0
$$

ILZ025>027-034>036-040-047-049-050-058-095>099-240000-
WEST-CENTRAL ILLINOIS

CITY           SKY/WX    TMP DP  RH WIND       PRES   REMARKS
QUINCY         SUNNY     71  25  17 E8        30.03S
GALESBURG*     SUNNY     71  31  23 NE5       30.02F
MACOMB*        SUNNY     71  25  17 E3        30.05S
JACKSONVILLE*  SUNNY     71  28  20 NE7       30.03S
PITTSFIELD*    SUNNY     71  25  18 N5        30.05S
$$

ILZ028>032-037-038-041>044-048-051>054-059>061-240000-
CENTRAL ILLINOIS

CITY           SKY/WX    TMP DP  RH WIND       PRES   REMARKS
PONTIAC        SUNNY     72  22  15 NE5       30.03S
BLOOMINGTON    SUNNY     70  26  19 NE10      30.04R
DECATUR        SUNNY     69  31  24 NE12      30.01S
PEORIA         SUNNY     70  28  21 NE3       30.03F
LACON*         SUNNY     70  29  21 NW5       30.02F
LINCOLN*       SUNNY     72  28  19 NE5       30.02S
SPRINGFIELD    SUNNY     72  29  20 NE9       30.02S
TAYLORVILLE    SUNNY     71  26  18 NE10      30.01S
$$

ILZ033-039-045-046-055>057-062-063-240000-
EAST-CENTRAL ILLINOIS

CITY           SKY/WX    TMP DP  RH WIND       PRES   REMARKS
CHAMPAIGN      SUNNY     71  28  20 NE14      30.01S
RANTOUL*       SUNNY     72  25  17 NE10G16   30.01S
MATTOON        SUNNY     70  25  18 NE16      29.98S
PARIS*         SUNNY     70  30  22 NE10G18   30.00R
$$

ILZ079-100>102-240000-
SOUTHWEST ILLINOIS

CITY           SKY/WX    TMP DP  RH WIND       PRES   REMARKS
ALTON          SUNNY     72  28  20 N16       30.00F
BELLEVILLE     SUNNY     73  30  20 N15G22    29.97S
CAHOKIA*       SUNNY     73  29  19 N14G22    29.98F
SPARTA*        SUNNY     69  34  27 N13       29.98F
$$

ILZ064>066-069>071-074>076-080>082-084>086-088>090-092>094-240000-
SOUTH-CENTRAL ILLINOIS

CITY           SKY/WX    TMP DP  RH WIND       PRES   REMARKS
CARBONDALE     SUNNY     69  36  29 N15G22    29.95S
CAIRO*         SUNNY     68  40  35 N13G20    29.93R
EFFINGHAM*     SUNNY     72  33  23 NE8       29.99S
MARION         SUNNY     70  36  28 N14G21    29.95R
MT. VERNON     SUNNY     71  30  21 NE9G20    29.96R
CENTRALIA*     SUNNY     71  34  25 N14       29.96S
SALEM*         SUNNY     72  27  18 N10G18    29.97R
METROPOLIS*    SUNNY     69  38  31 N12G20    29.92S
$$

ILZ067-068-072-073-078-083-087-091-240000-
SOUTHEAST ILLINOIS

CITY           SKY/WX    TMP DP  RH WIND       PRES   REMARKS
LAWRENCEVILLE  SUNNY     72  31  22 NE14G24   29.95S
FLORA*         SUNNY     73  29  20 N12G17    29.97R
FAIRFIELD*     SUNNY     71  34  25 N12       29.94R
HARRISBURG*    SUNNY     69  38  32 N14G20    29.94S
ROBINSON*      SUNNY     70  32  24 NE16G22   29.96S
CARMI*         SUNNY     69  38  31 N17       29.92S
$$

ABBREVIATIONS USED IN REMARKS
   TC - TEMPERATURE IN CELSIUS
  WCI - WIND CHILL INDEX
   HX - HEAT INDEX
  VSB - VISIBILITY
$$




USA.gov is the U.S. government's official web portal to all federal, state and local government web resources and services.